118  
ASUS41 KAKQ 211515  
RWRAKQ  
 
REGIONAL WEATHER ROUNDUP  
NATIONAL WEATHER SERVICE WAKEFIELD VA  
1100 AM EDT SAT MAY 21 2022  
 
NOTE: "FAIR" INDICATES FEW OR NO CLOUDS BELOW 12,000 FEET WITH NO  
SIGNIFICANT WEATHER AND/OR S TO VISIBILITY
. * = DENOTES  
STATION MAY NOT REPORT PRECIPITATION (E.G., RAIN,SNOW,ETC.),
 
THUNDER OR FOG.  
 
VAZ042-051-052>054-056-211600-  
NORTHERN VIRGINIA  
 
CITY SKY/WX TMP DP RH WIND PRES REMARKS
 
WASH NATIONAL PTSUNNY 82 66 58 S10 30.06S  
DULLES PTSUNNY 86 67 52 SW6 30.06S  
FORT BELVOIR MOSUNNY 85 68 57 CALM 30.07R  
QUANTICO MOSUNNY 79 67 66 S7 30.08R HAZE  
FREDERICKSBRG* MOSUNNY 86 64 47 S6 30.06S  
STAFFORD* MOSUNNY 86 62 45 S3 30.11S  
WARRENTON MOSUNNY 86 65 49 SW3 30.07S  
CULPEPER* MOSUNNY 87 67 51 W3 30.08S  
MANASSAS* MOSUNNY 85 69 58 SW5 30.07S  
LEESBURG* MOSUNNY 88 68 51 S3 30.08S  
WINCHESTER MOSUNNY 82 64 54 S7 30.06S  
FRONT ROYAL* FAIR 86 66 51 S6 30.07S  
LURAY* FAIR 86 63 45 SW7 30.09S  

 
 
VAZ048-049-060>072-079>083-211600-  
CENTRAL AND SOUTH CENTRAL VIRGINIA  
 
CITY SKY/WX TMP DP RH WIND PRES REMARKS
 
RICHMOND MOSUNNY 89 65 44 W12 30.10S  
CHESTERFIELD* NOT AVBL  
PETERSBURG* SUNNY 87 68 53 SW8 30.11S  
HANOVER SUNNY 88 68 51 SW12 30.10S  
TAPPAHANNOCK* NOT AVBL  
QUINTON* FAIR 87 69 54 W6 30.10S  
CHARLOTTSVILLE SUNNY 87 64 46 SW5 30.09S  
GORDONSVILLE* FAIR 84 67 55 SW5 30.08S  
ORANGE* SUNNY 82 68 61 SW3 30.08F  
LOUISA* SUNNY 84 66 55 SW6 30.10R  
BUMPASS* FAIR 84 66 53 SW5 30.09S  
FARMVILLE* SUNNY 86 65 50 SW9 30.10S  
CREWE* FAIR 85 62 46 W5 30.11S  
FORT PICKETT* FAIR 85 70 60 W6 30.12S  
CHASE CITY* FAIR 84 69 61 W7 30.14R  
CLARKSVILLE* FAIR 84 70 61 SW3 30.13R  
SOUTH HILL* SUNNY 84 67 56 SW8 30.19R  
LAWRENCEVILLE* FAIR 86 69 55 SW7 30.14R  
EMPORIA* SUNNY 87 70 57 S8 30.14R  

 
 
VAZ088>098-211600-  
SOUTHEAST VIRGINIA  
 
CITY SKY/WX TMP DP RH WIND PRES REMARKS
 
NORFOLK SUNNY 86 71 60 W9 30.12R  
VIRGINIA BEACH MOSUNNY 91 74 57 W10 30.12R HX 100  
NORFOLK NAVAL MOSUNNY 87 71 58 W8 30.13R  
WEST POINT* SUNNY 85 70 60 SW6 30.12R  
SALUDA* FAIR 85 69 58 SW5 30.10S  
NEWPORT NEWS SUNNY 86 71 60 SW9 30.11S  
LANGLEY AFB SUNNY 87 74 66 W8 30.11R HX 95  
FORT EUSTIS SUNNY 86 71 60 NW5 30.10R  
WILLIAMSBURG* SUNNY 88 72 58 W7 30.12S  
HR EXEC AP* FAIR 87 73 62 W8 30.13R  
FRANKLIN* SUNNY 86 71 60 W7 30.13R  
US460-WAKEFLD SUNNY 88 70 55 SW8 30.11S  

 
 
VAZ020-022-025-037-045-211600-  
WEST CENTRAL AND SOUTHWEST VIRGINIA  
 
CITY SKY/WX TMP DP RH WIND PRES REMARKS
 
STAUNTON* SUNNY 84 62 48 S8 30.13S  
WAYNESBORO* FAIR 83 62 49 S3 30.14R  
HOT SPRINGS VA SUNNY 74 58 57 W16G24 30.27R  
LYNCHBURG SUNNY 86 64 47 SW6 30.13F  
DANVILLE SUNNY 83 68 60 W8 30.13F  
SOUTH BOSTON* FAIR 84 68 58 W5 30.13F  
MARTINSVILLE SUNNY 82 67 60 SW6 30.16F  
ROANOKE SUNNY 85 61 44 W12 30.16S  
BLACKSBURG MOSUNNY 80 63 55 W5 30.23R  
DUBLIN* SUNNY 80 63 57 W8 30.21S  
MARION* MOSUNNY 78 62 57 SW9 30.25S  
HILLSVILLE* SUNNY 77 62 58 SW7 30.22S  
RICHLANDS* FAIR N/A N/A N/A W8 30.24R  
WISE* MOSUNNY 72 63 73 SW13 30.24S  
ABINGDON* MOSUNNY 80 64 59 W7 30.21S  

 
 
MDZ021>025-VAZ099-100-211600-  
SOUTHERN MARYLAND AND THE DELMARVA PENINSULA  
 
CITY SKY/WX TMP DP RH WIND PRES REMARKS
 
PATUXENT RIVER PTSUNNY 88 68 51 W8 30.07S  
BAY BRIDGE APT MOSUNNY 85 67 53 SW8 30.06S  
LEONARDTOWN MOSUNNY 84 66 54 W9 30.09S  
DOVER MOSUNNY 87 66 50 W8 30.04R  
GEORGETOWN SUNNY 87 68 52 SW9 30.07R  
EASTON SUNNY 88 70 55 SW8 30.10S  
CAMBRIDGE NOT AVBL  
SALISBURY SUNNY 85 68 56 SW12 30.08R  
TANGIER FAIR 79 71 76 S8 30.10S  
OCEAN CITY SUNNY 88 68 51 W13 30.07S  
WALLOPS ISLAND SUNNY 86 68 54 W12G18 30.09S  
ACCOMACK* SUNNY 82 65 57 W9G17 30.10F  

 
 
NCZ012>017-030>032-211600-  
NORTH CENTRAL AND EASTERN NORTH CAROLINA  
 
CITY SKY/WX TMP DP RH WIND PRES REMARKS
 
ROANOKE RAPIDS FAIR 84 77 79 S8 30.13S  
RALEIGH PTSUNNY 86 73 65 VRB5 30.15S  
ELIZABETH CITY SUNNY 85 72 65 SW10 30.14R  
AHOSKIE* SUNNY 85 71 64 SW5 30.14S  
EDENTON* SUNNY 86 77 74 SW7 30.16R HX 97  
CURRITUCK* SUNNY 85 69 57 SW8 30.13S  
KILL DEVIL HLS SUNNY 84 70 63 W8 30.14S  
MANTEO SUNNY 84 71 65 W12 30.16S  
CAPE HATTERAS SUNNY 79 73 82 SW6 30.19R  
TARBORO* FAIR 85 71 64 SW7 30.14S  
GOLDSBORO PTSUNNY 86 70 58 S7 30.13S  
WASHINGTON MOSUNNY 88 70 55 W6 30.16S  
GREENVILLE MOSUNNY 86 72 62 SW9 30.15S  
NEW BERN SUNNY 88 70 55 W8 30.17S  
WILMINGTON PTSUNNY 86 71 60 SW8 30.17S  

 
 
VAZ048-211600-  
ELSEWHERE  
 
CITY SKY/WX TMP DP RH WIND PRES REMARKS
 
HARRISBURG PA PTSUNNY 75 67 76 CALM 30.02S HAZE  
BALTIMORE PTSUNNY 89 68 49 W6 30.04S  
ANNAPOLIS MOSUNNY 77 68 73 SE9 30.05S  
ANDREWS AFB MOSUNNY 85 67 54 S5 30.05S  
PHILADELPHIA MOSUNNY 82 71 69 SE7 30.03F  
HENDERSON NC MOSUNNY 82 67 61 SW6 30.14S  
GREENSBORO PTSUNNY 82 68 62 VRB6 30.15S  
ROCKY MOUNT MOSUNNY 85 70 60 VRB7 30.15S  

 
 
VAZ100-211600-  
MARINE  
 
STATION/POSITION TIME TEMP WIND PRES WAVE SWELL
 
AIR SEA DIR/SP/G HT/PER HT/PER  
(UTC) (F) (DEG/KT/KT) (MB) (FT/S) (FT/S)  
CAPE MAY NJ 1430 76 59 230/ 5/ 7 1017.7S  
LEWES DE 1430 85 58 250/ 10/ 14 1017.9R  
15NM E FENWICK I 1450 63 59 200/ 10/ 12 1018.5S 3/ 6 3/ 6  
OCEAN-CITY-INLET 1430 83 63 280/ 10/ 17 1019.5R  
44089 WALLOPS IS 1456 62 N/A 3/ 5  
WACHAPREAGUE VA 1430 85 76 250/ 6/ 12 1019.3F  
THOMAS POINT MD 1500 75 67 140/ 10/ 11 1018.6F  
GOOSES REEF MD 1436 74 68 180/ 2/ 4 1020.4R  
COVE POINT MD 1430 82 170/ 7/ 10 1018.4S  
SOLOMONS ISLAND 1430 80 65 240/ 6/ 8 1016.8R  
BISHOPS HEAD MD 1430 75 73 230/ 7/ 8 1019.0R  
PINEY POINT MD 1430 350/ 3/ 4 N/A  
POTOMAC MD 1448 76 72 280/ 6/ 8 N/A  
CAMBRIDGE MD 1430 83 69 250/ 7/ 11 1018.2S  
LEWISETTA VA 1430 82 70 220/ 12/ 14 1018.2F  
STINGRAY PT 1448 78 71 150/ 4/ 6 N/A  
YORK RVR RNG VA 1430 81 280/ 8/ 8 N/A  
YORKTOWN VA 1430 82 69 260/ 6/ 12 1019.3R  
JAMESTOWN VA 1448 80 330/ 4/ 6 N/A  
DOMINION TERM VA 1430 79 250/ 7/ 8 1020.1R  
KIPTOPEKE VA 1430 69 300/ 1/ 2 N/A  
CHES BAY BRIDGE 1430 77 260/ 10/ 11 1019.1R  
CAPE HENRY VA 1430 85 260/ 7/ 10 1020.3R  
WILLOUBY STN VA 1430 78 250/ 6/ 8 1019.5R  
S CRANEY ISL VA 1430 85 250/ 8/ 10 1019.5S  
CAPE HENRY BUOY 1456 66 N/A 2/ 5  
1ST LANDING BUOY 1448 74 330/ 2/ 4 1021.6R  
64NM E OF VA BCH 1450 210/ 8/ 10 1020.4R 4/ 6 3/ 6  
DUCK PIER NC 1430 80 54 240/ 11/ 14 1020.7S  
44100 DUCK FRF 1456 64 N/A 2/ 9  
44056 DUCK FRF 1426 60 N/A 2/12  
OREGON INLET NC 1430 76 81 220/ 16/ 19 1021.3R  
HATTERAS NC 1430 77 73 210/ 8/ 12 1022.6R  
DIAMOND SHLS NC 1450 75 220/ 10/ 12 1022.4R  
CAPE LOOKOUT NC 1400 77 210/ 12/ 14 1022.2R  

 
 
 
CLICK HERE TO GO TO PREVIOUS BULLETINS.

The Nexlab VA Page
The Nexlab NC Page
The Nexlab MD Page Main Text Page